FENGYUN 1C DEB, 37911

Orbit data source: Space-Track

FENGYUN 1C DEB, 37911 is space debris in SSO originally from a launch on Mon, 10 May 1999 UTC launched from the Taiyaun Space Center, China (TSC). Fengyun 1C debris stems from the Chinese weather satellite Fengyun-1C, which was intentionally destroyed by a Chinese anti-satellite missile in 2007. This event dramatically increased the amount of space debris, with thousands of trackable fragments posing hazards to satellites and human spaceflight. The Fengyun 1C debris cloud has become a focal point in discussions about space sustainability and the need for international regulations to prevent the creation of new debris.

Loading next visibility...
Identifier
37911, 1999-025ENL
Orbit
SSO
Country
Flag of CNCN / PRC
Related business
Manufacturer
Unknown
Mission
Spacecraft
Bus & Motor
Unknown
Mass
Unknown
Launch date (UTC)
1999-05-10 (27 years ago)
Launch vehicle
Unknown
Launch site
Taiyaun Space Center, China (TSC)
Object type
Payload
Rocket body
Debris
Shape & HBR
Unknown shape, 0.1 m
Radar Cross Section
Medium (>0.1 m² and <1 m²)

Expand to show TLE details & history
Last TLE update: 4 days ago

TLE from 4 days ago
0 FENGYUN 1C DEB
1 37911U 99025ENL 26232.08003823  .00001941  00000-0  12749-2 0  9995
2 37911  99.2874 319.4743 0140356 144.9136 216.1370 13.98487038802078
Epoch: 2026-08-20T01:55Z
TLE epoch observation values (Epoch: 2026-08-20T01:55:15.303Z)
Latitude
-0.00009°
Longitude
-37.76374°
Altitude
984.901 km
Speed
7.317 km/s
True Right ascension
21h 17m 53s
True Declination
0° 00' 00"
Sunlit
Object was in full shadow at epoch
Visualization orbit readout
Latitude
Unknown
Longitude
Unknown
Altitude
Unknown
Speed
Unknown
Apparent Right ascension
Unknown
Apparent Declination
Unknown
Sunlit
N/A
Visualization observer readout
Local Sidereal Time
20:05:13
Azimuth
Unknown
Elevation
Unknown
Doppler factor
Unknown
Orbital elements
Apogee altitude
998.354 km
Perigee altitude
794.153 km
Semi-major axis
7,274.391 km
Eccentricity
0.01404
Inclination
99.2874°
RAAN
319.4743°
Arg. of periapsis
144.9136°
True anomaly
215.20182°
Mean anomaly
216.137°
Eccentric anomaly
215.66809°
Mean motion
3.49823 °/min
Orbital period
102.91 mins
BSTAR
0.0012749
Loading maneuver chart data...
Computing Atmospheric mass density...

Documentation

Showing up to 5 results
|